FENGYUN 1C DEB, 33730

Orbit data source: Space-Track

FENGYUN 1C DEB, 33730 is space debris in SSO originally from a launch on Mon, 10 May 1999 UTC launched from the Taiyaun Space Center, China (TSC). Fengyun 1C debris stems from the Chinese weather satellite Fengyun-1C, which was intentionally destroyed by a Chinese anti-satellite missile in 2007. This event dramatically increased the amount of space debris, with thousands of trackable fragments posing hazards to satellites and human spaceflight. The Fengyun 1C debris cloud has become a focal point in discussions about space sustainability and the need for international regulations to prevent the creation of new debris.

Loading next visibility...
Identifier
33730, 1999-025DHT
Orbit
SSO
Country
Flag of CNCN / PRC
Related business
Manufacturer
Unknown
Mission
Spacecraft
Bus & Motor
Unknown
Mass
Unknown
Launch date (UTC)
1999-05-10 (27 years ago)
Launch vehicle
Unknown
Launch site
Taiyaun Space Center, China (TSC)
Object type
Payload
Rocket body
Debris
Shape & HBR
Unknown shape, 0.1 m
Radar Cross Section
Small (<0.1 m²)

Expand to show TLE details & history
Last TLE update: 3 weeks ago

TLE from 3 weeks ago
0 FENGYUN 1C DEB
1 33730U 99025DHT 26216.97783621  .00005054  00000-0  89732-3 0  9997
2 33730  99.0368 303.1967 0036298  10.3220 349.8719 14.67288917991258
Epoch: 2026-08-04T23:28Z
TLE epoch observation values (Epoch: 2026-08-04T23:28:05.048Z)
Latitude
0.00001°
Longitude
-2.36318°
Altitude
647.518 km
Speed
7.547 km/s
True Right ascension
20h 12m 47s
True Declination
0° 00' 00"
Sunlit
Object was in full shadow at epoch
Visualization orbit readout
Latitude
Unknown
Longitude
Unknown
Altitude
Unknown
Speed
Unknown
Apparent Right ascension
Unknown
Apparent Declination
Unknown
Sunlit
N/A
Visualization observer readout
Local Sidereal Time
16:37:08
Azimuth
Unknown
Elevation
Unknown
Doppler factor
Unknown
Orbital elements
Apogee altitude
692.42 km
Perigee altitude
641.276 km
Semi-major axis
7,044.985 km
Eccentricity
0.00363
Inclination
99.0368°
RAAN
303.1967°
Arg. of periapsis
10.322°
True anomaly
349.79843°
Mean anomaly
349.8719°
Eccentric anomaly
349.8352°
Mean motion
3.67048 °/min
Orbital period
98.08 mins
BSTAR
0.00089732
Loading maneuver chart data...
Computing Atmospheric mass density...
Loading historical data...
Loading historical data...
Loading historical data...
Loading historical data...
Loading historical data...
Loading historical data...
Loading historical data...

Documentation

Showing up to 5 results
|